Location: Vancouver
(49.2500°N, 123.1330°W)
Time: 15:21:33
(UTC-07:00)

Vanguard 2 Rocket - Visible Passes

Search period start: 28 August 2016 00:00
Search period end: 07 September 2016 00:00
Orbit: 556 x 3327 km, 32.9° (Epoch: 28 August)

Date Brightness Start Highest point End Pass type
(mag) Time Alt. Az. Time Alt. Az. Time Alt. Az.
28 Aug 10.7 01:49:05 10° WSW 01:49:40 10° WSW 01:49:40 10° WSW visible
28 Aug 9.5 20:13:56 10° WSW 20:24:18 40° S 20:40:06 10° ESE visible
28 Aug 9.9 22:27:08 10° WSW 22:39:21 33° SSW 22:47:19 25° SSE visible
29 Aug 10.5 00:44:34 10° WSW 00:53:05 17° SW 00:53:05 17° SW visible
29 Aug 9.8 21:27:43 10° WSW 21:38:54 36° SSW 21:50:47 18° SE visible
29 Aug 10.3 23:42:58 10° WSW 23:53:55 22° SSW 23:56:33 21° SSW visible
30 Aug 9.6 20:28:42 10° WSW 20:38:41 36° S 20:53:46 10° SE visible
30 Aug 10.1 22:42:33 10° WSW 22:53:33 26° SSW 23:00:06 21° S visible
31 Aug 9.9 21:42:52 10° WSW 21:53:14 30° SSW 22:03:43 17° SSE visible
01 Sep 10.5 00:00:16 10° WSW 00:07:57 15° SW 00:09:30 15° SSW visible
01 Sep 9.7 20:43:42 10° WSW 20:53:06 32° SSW 21:07:01 10° SE visible
01 Sep 10.3 22:58:44 10° WSW 23:07:45 19° SSW 23:13:12 16° S visible
02 Sep 10.1 21:58:30 10° WSW 22:07:36 23° SSW 22:16:57 14° SSE visible
03 Sep 9.9 20:59:01 10° WSW 21:07:34 25° SSW 21:19:40 10° SSE visible
03 Sep 10.6 23:17:13 10° SW 23:21:58 12° SW 23:26:35 10° SSW visible
04 Sep 9.7 20:00:03 10° WSW 20:07:44 27° S 20:19:08 10° SE visible
04 Sep 10.4 22:15:12 10° WSW 22:21:58 16° SSW 22:30:15 10° S visible
05 Sep 10.2 21:15:00 10° WSW 21:22:03 19° SSW 21:31:20 10° SSE visible
06 Sep 9.9 20:15:37 10° WSW 20:22:19 21° SSW 20:31:35 10° SSE visible
